Weather History for Cannes, France

Change the Weather History Date:

Saturday, December 14, 2013

  Actual Average Record
Temperature  
Mean Temperature 46 °F -  
Max Temperature 57 °F 53 °F 62 °F (2003)
Min Temperature 35 °F 40 °F 35 °F (1997)
Degree Days  
Heating Degree Days 19    
Moisture  
Dew Point 37 °F    
Average Humidity 79    
Maximum Humidity 93    
Minimum Humidity 51    
Precipitation  
Precipitation 0.00 in - - ()
Sea Level Pressure  
Sea Level Pressure 30.32 in    
Wind  
Wind Speed 3 mph ()    
Max Wind Speed 6 mph    
Max Gust Speed -    
Visibility 6.0 miles    
Events      
Averages and records for this station are not official NWS values.
T = Trace of Precipitation, MM = Missing Value Source: Averaged Metar Reports

Daily Weather History Graph

Daily Weather History Graph

Search for Another Location

Airport:

Trip Planner

Search our weather history database for the weather conditions in past years. The results will help you decide how hot, cold, wet, or windy it might be!

Date:

Astronomy

Dec. 14, 2013 Rise Set
Actual Time 7:57 AM CET 4:56 PM CET
Civil Twilight 7:24 AM CET 5:28 PM CET
Nautical Twilight 6:48 AM CET 6:05 PM CET
Astronomical Twilight 6:13 AM CET 6:39 PM CET
Moon 3:10 PM CET (12/14) 4:59 AM CET (12/14)
Length of Visible Light 10h 03m
Length of Day
8h 58m
Waxing Gibbous, 92% of the Moon is Illuminated
Dec 14
Waxing Gibbous
Dec 17
Full
Dec 25
Last Quarter
Jan 1
New
Jan 8
First Quarter

Hourly Weather History & Observations

Time (CET) Temp. Windchill Dew Point Humidity Pressure Visibility Wind Dir Wind Speed Gust Speed Precip Events Conditions
12:00 AM 39.2 °F 37.0 °F 35.6 °F 87% 30.30 in 6.2 mi North 3.5 mph - N/A   Unknown
12:30 AM 39.2 °F 37.0 °F 35.6 °F 87% 30.30 in 6.2 mi North 3.5 mph - N/A   Unknown
1:00 AM 39.2 °F 37.0 °F 35.6 °F 87% 30.30 in 6.2 mi North 3.5 mph - N/A   Unknown
1:30 AM 39.2 °F - 35.6 °F 87% 30.30 in 6.2 mi Variable 2.3 mph - N/A   Unknown
2:00 AM 39.2 °F 35.9 °F 35.6 °F 87% 30.30 in 6.2 mi North 4.6 mph - N/A   Unknown
2:30 AM 37.4 °F 34.9 °F 33.8 °F 87% 30.30 in 6.2 mi Variable 3.5 mph - N/A   Unknown
3:00 AM 37.4 °F 34.9 °F 33.8 °F 87% 30.30 in 6.2 mi Variable 3.5 mph - N/A   Unknown
3:30 AM 37.4 °F 33.8 °F 33.8 °F 87% 30.30 in 6.2 mi North 4.6 mph - N/A   Unknown
4:00 AM 37.4 °F 33.8 °F 33.8 °F 87% 30.30 in 6.2 mi North 4.6 mph - N/A   Unknown
4:30 AM 37.4 °F 34.9 °F 33.8 °F 87% 30.27 in 6.2 mi North 3.5 mph - N/A   Unknown
5:00 AM 37.4 °F 33.8 °F 33.8 °F 87% 30.27 in 6.2 mi North 4.6 mph - N/A   Unknown
5:30 AM 35.6 °F 32.8 °F 33.8 °F 93% 30.30 in 6.2 mi North 3.5 mph - N/A   Unknown
6:00 AM 35.6 °F 31.7 °F 33.8 °F 93% 30.27 in 6.2 mi North 4.6 mph - N/A   Unknown
6:30 AM 35.6 °F 31.7 °F 32.0 °F 87% 30.30 in 6.2 mi North 4.6 mph - N/A   Unknown
7:00 AM 35.6 °F 31.7 °F 32.0 °F 87% 30.30 in 6.2 mi North 4.6 mph - N/A   Unknown
7:30 AM 35.6 °F 31.7 °F 32.0 °F 87% 30.30 in 6.2 mi North 4.6 mph - N/A   Unknown
8:00 AM 35.6 °F 32.8 °F 32.0 °F 87% 30.33 in 6.2 mi North 3.5 mph - N/A   Unknown
8:30 AM 35.6 °F 31.7 °F 33.8 °F 93% 30.33 in 6.2 mi North 4.6 mph - N/A   Unknown
9:00 AM 37.4 °F 33.8 °F 33.8 °F 87% 30.33 in 6.2 mi North 4.6 mph - N/A   Unknown
9:30 AM 41.0 °F 37.1 °F 35.6 °F 81% 30.33 in 6.2 mi North 5.8 mph - N/A   Unknown
10:00 AM 42.8 °F 40.1 °F 35.6 °F 76% 30.33 in 6.2 mi North 4.6 mph - N/A   Unknown
10:30 AM 46.4 °F 44.3 °F 37.4 °F 71% 30.33 in 6.2 mi Variable 4.6 mph - N/A   Unknown
11:00 AM 48.2 °F - 39.2 °F 71% 30.33 in 6.2 mi Variable 3.5 mph - N/A   Unknown
11:30 AM 51.8 °F - 39.2 °F 62% 30.33 in 6.2 mi Variable 2.3 mph - N/A   Unknown
12:00 PM 55.4 °F - 41.0 °F 58% 30.33 in 6.2 mi East 1.2 mph - N/A   Unknown
12:30 PM 55.4 °F - 42.8 °F 63% 30.33 in 6.2 mi South 3.5 mph - N/A   Unknown
1:00 PM 57.2 °F - 42.8 °F 59% 30.30 in 6.2 mi SSW 3.5 mph - N/A   Unknown
1:30 PM 57.2 °F - 42.8 °F 59% 30.30 in 6.2 mi Variable 2.3 mph - N/A   Unknown
2:00 PM 57.2 °F - 42.8 °F 59% 30.30 in 6.2 mi SE 4.6 mph - N/A   Unknown
2:30 PM 57.2 °F - 39.2 °F 51% 30.30 in 6.2 mi Variable 3.5 mph - N/A   Unknown
3:00 PM 57.2 °F - 39.2 °F 51% 30.30 in 6.2 mi Variable 2.3 mph - N/A   Unknown
3:30 PM 57.2 °F - 41.0 °F 55% 30.30 in 6.2 mi Variable 3.5 mph - N/A   Unknown
4:00 PM 57.2 °F - 41.0 °F 55% 30.30 in 6.2 mi Variable 2.3 mph - N/A   Unknown
4:30 PM 55.4 °F - 41.0 °F 58% 30.33 in 6.2 mi Variable 3.5 mph - N/A   Unknown
5:00 PM 50.0 °F - 41.0 °F 71% 30.33 in 6.2 mi Variable 2.3 mph - N/A   Unknown
5:30 PM 48.2 °F - 41.0 °F 76% 30.33 in 6.2 mi Variable 3.5 mph - N/A   Unknown
6:00 PM 46.4 °F 45.2 °F 41.0 °F 81% 30.33 in 5.6 mi North 3.5 mph - N/A   Unknown
6:30 PM 44.6 °F 43.1 °F 41.0 °F 87% 30.33 in 4.3 mi Variable 3.5 mph - N/A   Unknown
7:00 PM 42.8 °F 41.1 °F 39.2 °F 87% 30.33 in 4.3 mi Variable 3.5 mph - N/A   Unknown
7:30 PM 42.8 °F - 39.2 °F 87% 30.36 in 5.0 mi Variable 2.3 mph - N/A   Unknown
8:00 PM 42.8 °F 41.1 °F 39.2 °F 87% 30.36 in 5.0 mi Variable 3.5 mph - N/A   Unknown
8:30 PM 41.0 °F 39.0 °F 39.2 °F 93% 30.36 in 5.6 mi Variable 3.5 mph - N/A   Unknown
9:00 PM 41.0 °F 39.0 °F 37.4 °F 87% 30.36 in 5.6 mi North 3.5 mph - N/A   Unknown
9:30 PM 41.0 °F 38.0 °F 37.4 °F 87% 30.36 in 4.3 mi North 4.6 mph - N/A   Unknown
10:00 PM 41.0 °F 38.0 °F 37.4 °F 87% 30.36 in 5.6 mi North 4.6 mph - N/A   Unknown
10:30 PM 39.2 °F 37.0 °F 37.4 °F 93% 30.36 in 5.6 mi NNW 3.5 mph - N/A   Unknown
11:00 PM 39.2 °F 35.9 °F 37.4 °F 93% 30.36 in 6.2 mi North 4.6 mph - N/A   Unknown
11:30 PM 39.2 °F 35.9 °F 37.4 °F 93% 30.36 in 6.2 mi North 4.6 mph - N/A   Unknown